sat.trackr.live / text

‹ back to catalog

STARLINK-1547

NORAD 46347 · 2020-062Y

PAYLOAD ACTIVE UNKNOWN

§ Identity

Operator
Country
US
Launch date
2020-09-03
Launch site
AFETR
Launch vehicle
Mass (kg)
RCS (m²)

Purposes: comms

External: N2YO · Heavens-Above · Gunter

§ Orbital elements

Epoch: 2026-07-07T03:28:52.326912Z

Period
88.06 min
Inclination
53.0125°
Eccentricity
0.0010073
Mean motion
16.35330527 rev/d
Perigee alt
171.6 km
Apogee alt
184.9 km
Semi-major
6,556.4 km
B*
9.0697e-4
RAAN
38.4928°
Arg perigee
268.4308°
Mean anomaly
91.5582°
Rev number
32,456

§ Raw data

STARLINK-15471 46347U 20062Y   26188.14505008  .07419284  12229-4  90697-3 0  99912 46347  53.0125  38.4928 0010073 268.4308  91.5582 16.35330527324563

JSON: /api/v1/satellites/46347 · /tle

For live sub-satellite position, see the globe view (requires WebGL).

§ Visibility from observer

Set your observer location to see the next 7 days of passes ≥ 10°. The values pass through the URL so the page stays shareable.

No JS? Fill the form by hand. The geolocation button needs JavaScript.